ELECTRON R/B (44227 NORAD) Tracking and Keplerian Element Data

This shows tracking and keplerian element data for the satellite.

Feedback or suggestion? Click here.




ElementValue
Catalog44227
NameELECTRON R/B
Epoch Orbit450
Epoch Day154.88156166
Epoch Year2019
RAAN61.9246
Inclination40.0268
Eccentricity0.0008611
Argument of Perigee132.8158
Mean Anonmoly227.3369
Mean Motion15.21081703
Decay Rate1.061E-05
L11 44227U 19026C 19154.88156166 .00001061 00000-0 54754-4 0 9995
L22 44227 40.0268 61.9246 0008611 132.8158 227.3369 15.21081703 4502



Live tracking and technical data element details for ELECTRON R/B (NORAD 44227). ELECTRON R/B can be tracked NOW for your location showing map with azimuth and elevation plus other details from your city location.







IsCatalogInMostPopularTable: catalog: 44227, numindb: 199
Update: records affected: 1



GetName: 44227 ELECTRON R/B

Hit Count: updated at: Sun, 28 May 2023 18:31:08 GMT